This is the latest recevied weather packets stored in our database for station/object KJ4AJP. If no packets are shown the sender has not sent any weather packets the latest 10 day(s).
| Time | Temp. | Humidity | Pressure | Rain* | Wind** | Luminosity | Snow |
|---|---|---|---|---|---|---|---|
| 1777572312 | 18.33° C | 40% | 1017.7 hPa | 0 mm | - | 582 W/m² | - |
| 1777572009 | 18.33° C | 37% | 1017.8 hPa | 0 mm | - | 584 W/m² | - |
| 1777571708 | 17.78° C | 41% | 1017.4 hPa | 0 mm | - | 509 W/m² | - |
| 1777571407 | 17.22° C | 37% | 1017.6 hPa | 0 mm | - | 495 W/m² | - |
| 1777571103 | 17.22° C | 38% | 1017.8 hPa | 0 mm | - | 489 W/m² | - |
| 1777570798 | 17.78° C | 36% | 1017.7 hPa | 0 mm | - | 402 W/m² | - |
| 1777570494 | 17.78° C | 36% | 1017.6 hPa | 0 mm | - | 423 W/m² | - |
| 1777570190 | 17.78° C | 36% | 1017.6 hPa | 0 mm | - | 468 W/m² | - |
| 1777569887 | 17.78° C | 38% | 1017.7 hPa | 0 mm | - | 526 W/m² | - |
| 1777569583 | 16.67° C | 38% | 1018 hPa | 0 mm | - | 580 W/m² | - |
| 1777569279 | 17.22° C | 36% | 1017.8 hPa | 0 mm | - | 483 W/m² | - |
| 1777568976 | 17.22° C | 37% | 1018.2 hPa | 0 mm | - | 454 W/m² | - |
| 1777568672 | 17.22° C | 36% | 1018.3 hPa | 0 mm | - | 506 W/m² | - |
| 1777568370 | 17.78° C | 36% | 1018.4 hPa | 0 mm | - | 473 W/m² | - |
| 1777568067 | 17.22° C | 38% | 1018.3 hPa | 0 mm | - | 477 W/m² | - |
| 1777567763 | 17.22° C | 35% | 1018.3 hPa | 0 mm | - | 498 W/m² | - |
| 1777567460 | 17.22° C | 36% | 1018.3 hPa | 0 mm | - | 496 W/m² | - |
| 1777567158 | 17.78° C | 35% | 1018.7 hPa | 0 mm | - | 600 W/m² | - |
| 1777566855 | 17.78° C | 35% | 1018.5 hPa | 0 mm | - | 690 W/m² | - |
| 1777566553 | 17.22° C | 38% | 1018.4 hPa | 0 mm | - | 492 W/m² | - |
| 1777566250 | 17.22° C | 38% | 1018.5 hPa | 0 mm | - | 558 W/m² | - |
| 1777565948 | 17.22° C | 41% | 1018.5 hPa | 0 mm | - | 599 W/m² | - |
| 1777565643 | 17.22° C | 41% | 1018.2 hPa | 0 mm | - | 482 W/m² | - |
| 1777565340 | 16.67° C | 40% | 1018.1 hPa | 0 mm | - | 476 W/m² | - |
| 1777565035 | 17.22° C | 40% | 1018.3 hPa | 0 mm | - | 428 W/m² | - |
* Rain latest hour (hover to see other rain measurements)
** Current wind speed in m/s (hover to see current wind gust speed)